STARLINK-34455

Last updated on Sun Oct 05 2025 00:02:05 GMT+0000 (Coordinated Universal Time)

1 65497U 25198F 25276.58336806 .00036019 00000+0 65280-3 0 9999 2 65497 53.1580 289.6634 0000746 87.5236 170.2244 15.49303962 5334
UTC large
Height (km)
Speed (km/s)
/
Latitude / Longitude
Inclination (degrees)
Orbital Period (minutes)
Azimuth
Elevation
Range (km)
Doppler Factor

Next 0 passes for location: London (51.5072 / 0.1276)

Sorry there are no passes over London.
STARLINK-34455